COSMOS 1275 DEB

Satellite information

Favourite Embed

Satellite Type and Status

DEBRISIN ORBIT

Key statistics

Satellite COSMOS 1275 DEB at a glance.

Uptime

16044

Days in orbit

Revolutions

≈ 14.5

Per day

Orbit

LEO

Low Earth Orbit

Inclination

82.9

Latest

Satellite identification and parameters

Extended collection of information and parameters for COSMOS 1275 DEB.

Object identification

Identified? True

Debris? True

Object name: COSMOS 1275 DEB

International designator: 1981-053MB

Object number (NORAD): 18902

Object ID (CCSDS): 18902

Country: COMMONWEALTH OF INDEPENDENT STATES (CIS)

Current information (Y/N): Y

RCS size: SMALL

Orbital parameters

Period: 99.362 minutes

Inclination: 82.9459 deg

SMA: 7106.261 km

Apoapsis: 738.608 km

Periapsis: 717.644 km

RAAN: 281.995 deg

Eccentricy: 0.001475

Argument of periapsis: 85.9131 deg

Mean anomaly: 274.3752 deg

Mean motion: 14.49242434 rev/day

Mean motion (dot): 0.00005733 rev/day2

B* drag term: 0.0014978 1/REarth

Two-line elements (TLE)

Creation date: May 8, 2025, 3:01 a.m.

Reference frame: TEME

Reference center: EARTH

Epoch: May 7, 2025, 8:16 p.m. UTC

TLE line 0: 0 COSMOS 1275 DEB

TLE line 1: 1 18902U 81053MB 25127.84470352 .00005733 00000-0 14978-2 0 9996

TLE line 2: 2 18902 82.9459 281.9950 0014750 85.9131 274.3752 14.49242434606444

Live tracking on map

Real-time ground track for satellite COSMOS 1275 DEB.

In-orbit conjunctions

A list of the most updated potential collisions computed for object COSMOS 1275 DEB.

Target Orbit TCA Probability of collision Miss distance Type
SEASAT 1 SSO 2024-12-05 09:13:12 0.0001034492 957.0 (m) PAYLOAD

Associated space launch

Navigation satellite providing location information for the Tsiklon-B navigation system

COSMOS 1275 DEB was lifted into orbit during the mission ‘Kosmos-3M | Parus 27’, on board a Kosmos-3M space rocket.

The launch took place on June 4, 1981, 3:41 p.m. from 132/2.

For more information about the launch, click the button.

Launch to space Kosmos-3M | Parus 27
Kosmos-3M | Parus 27

Agency: N/A

Status: Launch Successful

Launch date: June 4, 1981, 3:41 p.m. UTC

Rocket: Kosmos-3M

Launch pad: 132/2

Location: Plesetsk Cosmodrome, Russian Federation

...

Latest news about this satellite

There are no fresh news available about this satellite. Check back as we update our databases every day.


Newsletter sign-up

Weekly statistics, charts and insights to help you stay on top of the space industry.